Retour au catalogue

SITRO-AIS-38

ActifNavigationSSO
NORAD 61786·PAYLOAD·🇷🇺 Russia
Ce nom de satellite n'a pas encore été confirmé par des sources officielles.

Lancé Nov 4, 2024 depuis Vostochny Cosmodrome

Loading…

Prochains Passages (prochaines 24 heures)

TLE

FraisSource: Space-Track

Époque: Sep 14, 2026, 14:10 UTC

1 61786U 24199BD  26257.59079225  .00031438  00000-0  48749-3 0  9998
2 61786  97.2757 132.9683 0006226 338.5014  21.5977 15.53931691148174

Suivez SITRO-AIS-38 en temps réel avec AllMySat

Download on the App Store